Regional Weather Roundup
Issued by NWS

Home | Current Version | Previous Version | Graphics & Text | Print | Product List | Glossary On
Versions: 1 2 3 4 5 6 7 8 9 10 11 12 13 14 15 16 17 18 19 20 21 22 23 24 25 26 27 28 29 30 31 32 33 34 35 36 37 38 39 40 41 42 43 44 45 46 47 48 49 50
000
ASUS43 KMPX 210810
RWRMN
WEATHER ROUNDUP FOR MINNESOTA
NATIONAL WEATHER SERVICE TWIN CITIES/CHANHASSEN MN
200 AM CST SUN JAN 21 2018


NOTE: "FAIR" INDICATES FEW OR NO CLOUDS BELOW 12,000 FEET WITH NO
SIGNIFICANT WEATHER AND/OR OBSTRUCTIONS TO VISIBILITY. N/A MEANS
CURRENT SKY AND/OR WEATHER CONDITIONS ARE NOT AVAILABLE.

MNZ060>063-068>070-210900-
   Twin Cities Metro

CITY           SKY/WX    TMP DP  RH WIND       PRES   REMARKS
TWIN CITIES    CLOUDY    36  31  82 CALM      29.96R
ST PAUL        CLOUDY    32  31  96 CALM      29.96S
CRYSTAL        CLOUDY    36  28  73 N3        29.94S
BLAINE         FAIR      37  32  81 N3        29.94F
LAKEVILLE        N/A     27  27 100 CALM      29.95R
EDEN PRAIRIE   CLOUDY    33  30  88 S3        29.94R
SOUTH ST PAUL  CLOUDY    32  31  96 CALM      29.95S
LAKE ELMO      CLOUDY    34  32  93 CALM      29.96R
$$
MNZ001>005-007-008-013>017-022>024-027-028-210900-
   Northwest Minnesota

CITY           SKY/WX    TMP DP  RH WIND       PRES   REMARKS
BEMIDJI        FOG       20  19  96 CALM      29.93R VSB 1/2
HALLOCK        FAIR      10   7  85 S3        29.96R
ROSEAU         FAIR      21  16  79 SW6       29.93R WCI  14
WARROAD        FAIR      19  16  86 SW3       29.94R
THIEF RVR FALL FAIR      19  18  93 CALM      29.96R FOG
CROOKSTON      FOG       19  19 100 W3        29.97R VSB 3/4
FOSSTON        FOG       18  18 100 CALM      29.95S VSB 1/4
DETROIT LAKES  FAIR      25  25 100 CALM      29.95S
MOORHEAD       FAIR      27  25  93 W6        29.97S WCI  20
PARK RAPIDS    FAIR      23  19  85 CALM      29.93R
MAHNOMEN       FAIR      23  22  96 CALM      29.95R
$$
MNZ006-009>011-018-025>026-210900-
   North Central Minnesota

CITY           SKY/WX    TMP DP  RH WIND       PRES   REMARKS
BAUDETTE       FAIR      19  17  92 SW3       29.91R FOG
FLAG ISLAND    FAIR      19  18  93 SW5       29.91R WCI  13
INTL FALLS     FAIR      23  20  88 W5        29.91R WCI  17
WASKISH        FAIR      19  19 100 W5        29.93R WCI  13
BIG FORK       FOG       14  12  92 CALM      29.93R VSB 3/4
LONGVILLE      FAIR      19  18  93 CALM      29.95R
GRAND RAPIDS   FAIR      24  23  96 S3        29.96R
CRANE LAKE     FAIR      16  14  93 CALM      29.94S
ORR            FAIR      21  19  93 CALM      29.90R
COOK           FOG       16  12  86 CALM      29.93R VSB 1/4
WALKER         FAIR      26  24  91 CALM      29.93R
$$
MNZ012-019>021-037-210900-
   Northeast Minnesota

CITY           SKY/WX    TMP DP  RH WIND       PRES   REMARKS
DULUTH         FAIR      29  26  89 NW7       29.92R WCI  22
HIBBING        FOG       12  11  95 CALM      29.93R VSB 1/2
EVELETH        FAIR      12   9  85 CALM      29.93R
DULUTH HARBOR  FAIR      30  27  86 SW3       29.96R
TWO HARBORS    FAIR      30  25  80 CALM      29.92R
SILVER BAY     FAIR      19  19 100 CALM      29.91R
GRAND MARAIS     N/A     31  30  96 NE3       29.95R
G MARAIS ARPRT FOG       19  16  86 CALM      29.89S VSB 1/2
$$
MNZ029>031-032-039>041-046>048-054>057-064-210900-
   West Central Minnesota

CITY           SKY/WX    TMP DP  RH WIND       PRES   REMARKS
FERGUS FALLS   FAIR      30  30 100 CALM      29.95F
WHEATON        CLOUDY    34  27  75 NW3       29.98F
MORRIS         CLOUDY    36  28  75 NW8       29.94F
ALEXANDRIA     CLOUDY    32  29  88 NW5       29.95S WCI  27
ELBOW LAKE     FAIR      30  28  95 NW3       29.96F
WADENA         FAIR      28  27  93 W3        29.95R
GLENWOOD       FAIR      34  30  86 W5        29.95R WCI  30
APPLETON       MOCLDY    37  28  70 N3        29.95S
BENSON         CLOUDY    34  30  86 N5        29.97R WCI  30
ORTONVILLE     CLOUDY    36  28  75 N7        29.96S
MADISON        CLOUDY    39  32  75 N8        29.97R
WILLMAR        CLOUDY    36  30  80 N3        29.97R
$$
MNZ033>034-036-042>043-049>051-058-059-210900-
   Central Minnesota

CITY           SKY/WX    TMP DP  RH WIND       PRES   REMARKS
ST CLOUD       MOCLDY    32  29  88 CALM      29.94F
SAUK CENTRE      N/A     30  28  91 NW3       29.95R
PAYNESVILLE    CLOUDY    32  31  97 CALM      29.95R
AITKIN         FAIR      27  23  86 CALM      29.94R
PINE RIVER     FAIR      21  19  93 CALM      29.98R
BRAINERD       FAIR      28  25  88 CALM      29.95S
STAPLES        FAIR      25  25 100 CALM      29.95R
LONG PRAIRIE   FAIR      30  28  93 CALM      29.95S
LITTLE FALLS   FAIR      30  27  86 CALM      29.95S
LITCHFIELD     CLOUDY    37  32  81 N5        29.95R
BUFFALO        CLOUDY    37  29  75 N3        29.96R
MAPLE LAKE     CLOUDY    36  32  86 MISG      29.95S
HUTCHINSON     CLOUDY    36  32  84 CALM      29.96R
$$
MNZ037-044-045-052-053-210900-
   East Central Minnesota

CITY           SKY/WX    TMP DP  RH WIND       PRES   REMARKS
PRINCETON      FAIR      34  30  86 NW3       29.95F
MORA           FAIR      28  25  86 CALM      29.97S
CAMBRIDGE        N/A     36  27  69 N5        29.95S
RUSH CITY      CLOUDY    32  28  88 CALM      29.96S
MOOSE LAKE     MOCLDY    30  27  86 CALM      29.93R
HINCKLEY       FAIR      28  28 100 CALM      29.95S
CLOQUET        FAIR      28  25  86 W7        29.93S WCI  21
MCGREGOR       FAIR      28  27  93 CALM      29.95R
$$
MNZ071>073-080-081-089-090-097-098-210900-
   Southwest Minnesota

CITY           SKY/WX    TMP DP  RH WIND       PRES   REMARKS
MONTEVIDEO     CLOUDY    37  30  75 N5        29.95S
GRANITE FALLS  CLOUDY    35  32  86 W6        29.97F WCI  30
CANBY          CLOUDY    39  31  73 W5        29.97S
MARSHALL       CLOUDY    35  29  78 NW6       29.96S WCI  30
REDWOOD FALLS  CLOUDY    36  30  79 CALM      29.95R
OLIVIA         CLOUDY    34  32  93 SW5       29.96R WCI  30
PIPESTONE      CLOUDY    34  28  80 NE5       29.92F WCI  30
WINDOM         CLOUDY    34  19  55 N7        29.93S WCI  28
WORTHINGTON    CLOUDY    30  28  92 N6        29.93S WCI  24
JACKSON        CLOUDY    30  28  93 VRB3      29.93S
TRACY          CLOUDY    36  30  79 NW6       29.95R
SLAYTON        CLOUDY    31  28  89 NW3       29.94S
$$
MNZ065>067-074>077-082>085-091>093-210900-
   South Central Minnesota

CITY           SKY/WX    TMP DP  RH WIND       PRES   REMARKS
MANKATO        FAIR      31  28  89 N3        29.96R FOG
NEW ULM        CLOUDY    34  28  80 CALM      29.95R
ST JAMES       CLOUDY    28  28 100 NW3       29.96R
FAIRMONT       CLOUDY    29  28  96 N7        29.94R WCI  22
FARIBAULT      MOCLDY    25  25 100 CALM      29.96R FOG
OWATONNA       FAIR      27  25  93 CALM      29.94R FOG
WASECA         FAIR      28  27  93 N6        29.96R FOG     WCI  22
ALBERT LEA     FAIR      28  28 100 CALM      29.93S FOG
$$
MNZ078>079-086>088-094>096-210900-
   Southeast Minnesota

CITY           SKY/WX    TMP DP  RH WIND       PRES   REMARKS
ROCHESTER      FAIR      31  29  92 N3        29.93R
RED WING       FAIR      27  25  93 CALM      29.96R FOG
STANTON        FAIR      26  24  93 CALM      29.95R FOG
DODGE CENTER   FAIR      28  28 100 CALM      29.93S FOG
WINONA           N/A     25  25 100 CALM      29.94S FOG
AUSTIN         FAIR      28  27  93 CALM      29.92S FOG
PRESTON        FAIR      29  28  95 CALM      29.93R FOG
$$
ABBREVIATIONS USED IN REMARKS
   TC - TEMPERATURES IN CELSIUS
  WCI - WIND CHILL INDEX
   HX - HEAT INDEX
  VSB - VISIBILITY
$$



USA.gov is the U.S. government's official web portal to all federal, state and local government web resources and services.